User: anonymous   Login
Location: Radford
(37.1320°N, 80.5770°W)
Time: 20:17:00
(UTC-04:00)
Language:

Okean 1-7 - Orbit

View from above orbital plane
View from above orbital plane
View from above satellite
View from above satellite

Ground track
Ground track

The orbit data is extracted from the following two-line orbital elements,

1 23317U 94066A   15089.20378278  .00002077  00000-0  23161-3 0  9993
2 23317 082.5395 159.6096 0019128 228.1593 188.6442 14.86470758105589
Epoch (UTC): 30 March 2015 04:53:26
Eccentricity: 0.0019128
inclination: 82.5395°
perigee height: 595 km
apogee height: 622 km
right ascension of ascending node: 159.6096°
argument of perigee: 228.1593°
revolutions per day: 14.86470758
mean anomaly at epoch: 188.6442°
orbit number at epoch: 10558

The dashed part of the orbit path shows where the satellite is in the earth's shadow,  

DLR